GW5048 Weather Reports


Display with metric or nautical units.
time (UTC)temp
F
wind
direction
speed
MPH
gust
MPH
rain 1hr
in
rain 24hr
in
rain mn
in
humidity
%
barometer
mb
20260508092732 31 54 0.0 0.0 0.00 0.00 0.00 97 956.2
20260508092230 32 73 0.0 0.0 0.00 0.00 0.00 97 956.1
20260508091728 32 81 0.0 0.0 0.00 0.00 0.00 97 956.0
20260508091224 32 81 0.0 0.0 0.00 0.00 0.00 97 956.0
20260508090722 31 81 0.0 0.0 0.00 0.00 0.00 97 955.9
20260508090219 31 81 0.0 0.0 0.00 0.00 0.00 97 955.9
20260508085715 31 92 0.0 0.0 0.00 0.00 0.00 97 956.0
20260508085213 31 92 0.0 0.0 0.00 0.00 0.00 97 956.1
20260508084708 31 83 0.0 0.0 0.00 0.00 0.00 97 955.8
20260508084206 31 76 0.0 0.0 0.00 0.00 0.00 97 955.9
20260508083704 32 76 0.0 0.0 0.00 0.00 0.00 97 955.8
20260508083201 32 83 0.0 0.0 0.00 0.00 0.00 97 955.7
20260508082655 32 76 0.0 0.0 0.00 0.00 0.00 97 955.5
20260508082153 32 76 0.0 0.0 0.00 0.00 0.00 97 955.8
20260508081651 32 93 0.0 0.0 0.00 0.00 0.00 97 955.8
20260508081147 32 93 0.0 0.0 0.00 0.00 0.00 97 955.8
20260508080644 32 100 0.0 0.0 0.00 0.00 0.00 97 955.8
20260508080143 32 108 0.0 0.0 0.00 0.00 0.00 97 955.8
20260508075639 32 108 0.0 0.0 0.00 0.00 0.00 97 955.7
20260508075136 32 108 0.0 0.0 0.00 0.00 0.00 97 955.7
20260508074633 33 108 0.0 0.0 0.00 0.00 0.00 97 955.6
20260508074130 33 108 0.0 0.0 0.00 0.00 0.00 96 955.6
20260508073627 33 108 0.0 0.0 0.00 0.00 0.00 96 955.7
20260508073126 33 108 0.0 0.0 0.00 0.00 0.00 96 955.6
20260508072620 33 3 0.0 0.0 0.00 0.00 0.00 96 955.7
20260508072118 33 3 0.0 0.0 0.00 0.00 0.00 95 955.6
20260508071615 33 3 0.0 0.0 0.00 0.00 0.00 95 955.7
20260508071114 33 3 0.0 0.0 0.00 0.00 0.00 95 955.6
20260508070611 33 3 0.0 0.0 0.00 0.00 0.00 95 955.4
20260508070109 33 3 0.0 0.0 0.00 0.00 0.00 95 955.4
20260508065606 33 3 0.0 0.0 0.00 0.00 0.00 95 955.4
20260508065104 34 3 0.0 0.0 0.00 0.00 0.00 95 955.6
20260508064601 34 4 0.0 0.0 0.00 0.00 0.00 94 955.6
20260508064059 34 3 0.0 0.0 0.00 0.00 0.00 94 955.7
20260508063556 34 4 0.0 0.0 0.00 0.00 0.00 94 955.8
20260508063054 34 3 0.0 0.0 0.00 0.00 0.00 93 955.6
20260508062552 34 3 0.0 0.0 0.00 0.00 0.00 93 955.7
20260508062048 35 3 0.0 0.0 0.00 0.00 0.00 93 955.8
20260508061546 35 3 0.0 0.0 0.00 0.00 0.00 93 955.6
20260508061043 35 3 0.0 0.0 0.00 0.00 0.00 93 955.6
20260508060539 35 3 0.0 0.0 0.00 0.00 0.00 93 955.7
20260508060037 35 3 0.0 0.0 0.00 0.00 0.00 94 955.6
20260508055532 35 3 0.0 0.0 0.00 0.00 0.00 94 955.5
20260508055030 35 3 0.0 0.0 0.00 0.00 0.00 94 955.6
20260508054526 35 4 0.0 0.0 0.00 0.00 0.00 95 955.4
20260508054023 35 4 0.0 0.0 0.00 0.00 0.00 95 955.6
20260508053520 35 15 0.0 0.0 0.00 0.00 0.00 96 955.5
20260508053019 35 15 0.0 0.0 0.00 0.00 0.00 96 955.5
20260508052515 35 22 0.0 0.0 0.00 0.00 0.00 96 955.5
20260508052012 36 22 0.0 0.0 0.00 0.00 0.00 96 955.4
20260508051508 36 26 0.0 0.0 0.00 0.00 0.00 96 955.3
20260508051003 36 26 0.0 0.0 0.00 0.00 0.00 96 955.5
20260508050500 36 105 0.0 0.0 0.00 0.00 0.00 96 955.4
20260508045956 36 114 0.0 0.0 0.00 0.00 0.00 96 955.4
20260508045454 36 114 0.0 0.0 0.00 0.00 0.00 96 955.3
20260508044951 37 114 0.0 0.0 0.00 0.00 0.00 96 955.5
20260508044448 37 114 0.0 0.0 0.00 0.00 0.00 96 955.4
20260508043943 37 114 0.0 0.0 0.00 0.00 0.00 96 955.3
20260508043441 37 115 0.0 0.0 0.00 0.00 0.00 95 955.5
20260508042937 37 115 0.0 0.0 0.00 0.00 0.00 95 955.2
20260508042435 37 116 0.0 0.0 0.00 0.00 0.00 95 955.2
20260508041932 37 55 0.0 0.0 0.00 0.00 0.00 96 955.3
20260508041428 37 8 0.0 0.0 0.00 0.00 0.00 95 955.3
20260508040925 37 8 0.0 0.0 0.00 0.00 0.00 95 955.1
20260508040423 37 354 0.0 0.0 0.00 0.00 0.00 94 955.1
20260508035920 37 354 0.0 0.0 0.00 0.00 0.00 94 955.0
20260508035417 37 354 0.0 0.0 0.00 0.00 0.00 94 955.2
20260508034914 38 354 0.0 0.0 0.00 0.00 0.00 94 955.2
20260508034411 38 354 0.0 0.0 0.00 0.00 0.00 94 954.9
20260508033907 38 354 0.0 0.0 0.00 0.00 0.00 93 954.8
20260508033406 38 354 0.0 0.0 0.00 0.00 0.00 93 955.0
20260508032903 38 354 0.0 0.0 0.00 0.00 0.00 93 954.8
20260508032400 39 354 0.0 0.0 0.00 0.00 0.00 93 955.0
20260508031857 39 354 0.0 0.0 0.00 0.00 0.00 92 954.8
20260508031354 39 354 0.0 0.0 0.00 0.00 0.00 92 954.8
20260508030850 40 354 0.0 0.0 0.00 0.00 0.00 92 954.6
20260508030347 40 354 0.0 0.0 0.00 0.00 0.00 92 954.7
20260508025844 0 0.0 0.0 0.00 0.00 0.00 954.5
20260508025341 40 354 0.0 0.0 0.00 0.00 0.00 90 954.5
20260508024838 40 354 0.0 0.0 0.00 0.00 0.00 90 954.4
20260508024334 41 342 0.0 0.0 0.00 0.00 0.00 89 954.5
20260508023831 41 342 0.0 0.0 0.00 0.00 0.00 89 954.5
20260508023328 41 342 0.0 0.0 0.00 0.00 0.00 88 954.5
20260508022825 41 342 0.0 0.0 0.00 0.00 0.00 87 954.2
20260508022321 42 342 0.0 0.0 0.00 0.00 0.00 86 954.2
20260508021818 42 342 0.0 0.0 0.00 0.00 0.00 85 954.2
20260508021314 43 342 0.0 0.0 0.00 0.00 0.00 84 954.2
20260508020810 43 342 0.0 0.0 0.00 0.00 0.00 83 953.9
20260508020308 43 342 0.0 0.0 0.00 0.00 0.00 83 954.2
20260508015804 43 341 0.0 0.0 0.00 0.00 0.00 84 954.1
20260508015305 43 342 0.0 0.0 0.00 0.00 0.00 84 954.0
20260508014759 43 342 0.0 0.0 0.00 0.00 0.00 83 953.9
20260508014256 0 0.0 0.0 0.00 0.00 0.00 953.9
20260508013751 44 338 0.0 0.0 0.00 0.00 0.00 83 953.9
20260508013248 44 338 0.0 0.0 0.00 0.00 0.00 83 953.7
20260508012745 44 338 0.0 0.0 0.00 0.00 0.00 81 953.8
20260508012242 45 339 0.0 0.0 0.00 0.00 0.00 80 953.5
20260508011740 45 338 0.0 0.0 0.00 0.00 0.00 78 953.6
20260508011237 45 338 0.0 0.0 0.00 0.00 0.00 77 953.5
20260508010734 46 338 0.0 0.0 0.00 0.00 0.00 74 953.4
20260508010232 46 333 0.0 0.0 0.00 0.00 0.00 75 953.4
20260508005729 47 322 0.0 0.0 0.00 0.00 0.00 72 953.5
20260508005226 47 332 0.0 0.0 0.00 0.00 0.00 72 953.5
20260508004721 47 254 2.0 2.0 0.00 0.00 0.00 67 953.6
20260508004218 47 278 0.0 0.0 0.00 0.00 0.00 70 953.4
20260508003715 48 328 0.0 0.0 0.00 0.00 0.00 72 953.3
20260508003212 48 326 1.0 1.0 0.00 0.00 0.00 71 953.3
20260508002708 49 270 0.0 1.0 0.00 0.00 0.00 66 953.1
20260508002206 50 251 1.0 2.0 0.00 0.00 0.00 63 953.3
20260508001701 50 274 0.0 0.0 0.00 0.00 0.00 61 953.0
20260508001157 50 337 0.0 0.0 0.00 0.00 0.00 62 952.9
20260508000654 51 337 1.0 2.0 0.00 0.00 0.00 62 953.0
20260508000151 51 346 0.0 0.0 0.00 0.00 0.00 60 952.9
20260507235647 51 242 1.0 1.0 0.00 0.00 0.00 60 952.9
20260507235145 52 257 0.0 0.0 0.00 0.00 0.00 59 953.1
20260507234642 52 299 0.0 0.0 0.00 0.00 0.00 58 953.0
20260507234138 52 284 1.0 4.0 0.00 0.00 0.00 59 952.9
20260507233635 53 284 1.0 1.0 0.00 0.00 0.00 58 952.8
20260507233134 53 288 0.0 0.0 0.00 0.00 0.00 59 952.9
20260507232629 53 267 0.0 0.0 0.00 0.00 0.00 61 953.0
20260507232127 53 237 0.0 3.0 0.00 0.00 0.00 59 952.9
20260507231623 53 340 1.0 2.0 0.00 0.00 0.00 58 953.0
20260507231121 53 316 0.0 0.0 0.00 0.00 0.00 59 952.6
20260507230616 54 239 3.0 4.0 0.00 0.00 0.00 57 952.7
20260507230114 55 277 1.0 2.0 0.00 0.00 0.00 57 952.8
20260507225608 55 207 1.0 4.0 0.00 0.00 0.00 56 952.7
20260507225105 56 288 1.0 3.0 0.00 0.00 0.00 57 952.5
20260507224601 57 256 1.0 2.0 0.00 0.00 0.00 55 952.5
20260507224058 57 252 0.0 2.0 0.00 0.00 0.00 54 952.6
20260507223554 55 177 2.0 2.0 0.00 0.00 0.00 56 952.6
20260507223051 55 281 0.0 0.0 0.00 0.00 0.00 57 952.5
20260507222548 56 243 2.0 6.0 0.00 0.00 0.00 56 952.5
20260507222044 57 275 2.0 4.0 0.00 0.00 0.00 56 952.3
20260507221541 55 190 1.0 4.0 0.00 0.00 0.00 56 952.2
20260507221038 56 240 4.0 7.0 0.00 0.00 0.00 57 952.4
20260507220535 56 325 1.0 4.0 0.00 0.00 0.00 60 952.1
20260507220032 58 197 1.0 1.0 0.00 0.00 0.00 56 952.3
20260507215528 57 169 2.0 7.0 0.00 0.00 0.00 54 952.1
20260507215027 58 106 2.0 4.0 0.00 0.00 0.00 54 952.0
20260507214523 58 245 1.0 3.0 0.00 0.00 0.00 57 952.1
20260507214019 57 212 1.0 4.0 0.00 0.00 0.00 55 952.1
20260507213516 56 312 0.0 1.0 0.00 0.00 0.00 61 952.1
20260507213013 57 54 4.0 7.0 0.00 0.00 0.00 57 952.0
20260507212508 59 272 1.0 3.0 0.00 0.00 0.00 55 951.7
20260507212005 58 136 1.0 8.0 0.00 0.00 0.00 55 951.6
20260507211502 57 265 6.0 7.0 0.00 0.00 0.00 55 951.7
20260507210958 56 318 3.0 4.0 0.00 0.00 0.00 58 951.6
20260507210455 54 316 0.0 2.0 0.00 0.00 0.00 64 951.7
20260507205952 54 254 1.0 4.0 0.00 0.00 0.00 63 951.7
20260507205449 55 303 1.0 4.0 0.00 0.00 0.00 59 951.6
20260507204945 55 277 2.0 2.0 0.00 0.00 0.00 58 951.6
20260507204442 55 261 0.0 3.0 0.00 0.00 0.00 59 951.6
20260507203940 55 319 2.0 4.0 0.00 0.00 0.00 59 951.5
20260507203437 56 234 2.0 6.0 0.00 0.00 0.00 58 951.6
20260507202934 58 261 1.0 4.0 0.00 0.00 0.00 54 951.6
20260507202430 57 326 2.0 6.0 0.00 0.00 0.00 55 951.4
20260507201926 56 3 4.0 6.0 0.00 0.00 0.00 54 951.9
20260507201421 56 282 0.0 7.0 0.00 0.00 0.00 59 951.6
20260507200919 58 328 4.0 6.0 0.00 0.00 0.00 55 951.9
20260507200414 55 253 1.0 3.0 0.00 0.00 0.00 58 951.9
20260507195910 55 276 4.0 4.0 0.00 0.00 0.00 61 952.2
20260507195408 55 232 2.0 4.0 0.00 0.00 0.00 61 952.2
20260507194905 55 359 4.0 4.0 0.00 0.00 0.00 62 952.0
20260507194401 54 13 1.0 2.0 0.00 0.00 0.00 65 952.0
20260507193857 55 25 1.0 3.0 0.00 0.00 0.00 63 951.9
20260507193355 57 345 3.0 4.0 0.00 0.00 0.00 63 952.1
20260507192851 58 286 1.0 2.0 0.00 0.00 0.00 57 951.9
20260507192347 56 225 0.0 3.0 0.00 0.00 0.00 61 952.3
20260507191844 54 262 0.0 3.0 0.00 0.00 0.00 66 952.2
20260507191340 53 65 2.0 4.0 0.00 0.00 0.00 69 952.5
20260507190837 53 270 0.0 3.0 0.00 0.00 0.00 68 952.4
20260507190335 53 340 2.0 4.0 0.00 0.00 0.00 69 952.4
20260507185834 53 339 2.0 4.0 0.00 0.00 0.00 69 952.6
20260507185330 53 92 2.0 3.0 0.00 0.00 0.00 72 952.6
20260507184827 53 32 3.0 3.0 0.00 0.00 0.00 69 952.6
20260507184326 53 251 4.0 7.0 0.00 0.00 0.00 67 952.7
20260507183822 54 4 0.0 4.0 0.00 0.00 0.00 71 952.6
20260507183319 54 220 3.0 9.0 0.00 0.00 0.00 66 952.6
20260507182817 55 265 4.0 4.0 0.00 0.00 0.00 65 952.5
20260507182312 54 334 1.0 6.0 0.00 0.00 0.00 68 952.5
20260507181809 55 354 2.0 4.0 0.00 0.00 0.00 66 952.5
20260507181305 55 213 1.0 4.0 0.00 0.00 0.00 68 952.4
20260507180801 55 340 1.0 7.0 0.00 0.00 0.00 65 952.3
20260507180259 56 204 4.0 9.0 0.00 0.00 0.00 63 952.5
20260507175754 55 326 0.0 4.0 0.00 0.00 0.00 69 952.4
20260507175251 56 198 2.0 4.0 0.00 0.00 0.00 62 952.2
20260507174748 54 306 0.0 3.0 0.00 0.00 0.00 67 952.5
20260507174246 54 0 2.0 3.0 0.00 0.00 0.00 70 952.6
20260507173744 53 308 0.0 2.0 0.00 0.00 0.00 67 952.4
20260507173241 53 13 2.0 6.0 0.00 0.00 0.00 67 952.6
20260507172737 53 265 1.0 3.0 0.00 0.00 0.00 65 952.5
20260507172234 53 233 0.0 8.0 0.00 0.00 0.00 65 952.8
20260507171734 54 318 0.0 7.0 0.00 0.00 0.00 63 952.6
20260507171232 54 267 2.0 2.0 0.00 0.00 0.00 64 952.8
20260507170729 54 248 2.0 4.0 0.00 0.00 0.00 62 952.9
20260507170225 55 16 2.0 4.0 0.00 0.00 0.00 60 952.7
20260507165721 55 289 0.0 2.0 0.00 0.00 0.00 60 952.7
20260507165217 55 350 1.0 4.0 0.00 0.00 0.00 63 952.7
20260507164713 54 62 0.0 6.0 0.00 0.00 0.00 61 952.7
20260507164211 55 8 1.0 3.0 0.00 0.00 0.00 65 952.7
20260507163708 55 133 0.0 2.0 0.00 0.00 0.00 59 952.7
20260507163206 54 354 2.0 3.0 0.00 0.00 0.00 60 952.8
20260507162702 54 333 1.0 3.0 0.00 0.00 0.00 62 952.8
20260507162158 54 297 0.0 3.0 0.00 0.00 0.00 58 952.9
20260507161654 54 25 1.0 3.0 0.00 0.00 0.00 65 952.7
20260507161150 54 288 1.0 2.0 0.00 0.00 0.00 63 952.8
20260507160647 53 341 2.0 3.0 0.00 0.00 0.00 61 953.1
20260507160144 53 341 0.0 2.0 0.00 0.00 0.00 65 953.3
20260507155639 53 39 2.0 2.0 0.00 0.00 0.00 64 953.3
20260507155136 52 242 0.0 2.0 0.00 0.00 0.00 67 953.1
20260507154633 52 67 2.0 4.0 0.00 0.00 0.00 70 953.3
20260507154130 52 267 1.0 2.0 0.00 0.00 0.00 65 953.4
20260507153621 52 182 0.0 3.0 0.00 0.00 0.00 69 953.1
20260507153118 52 334 0.0 2.0 0.00 0.00 0.00 74 953.2
20260507152614 51 258 0.0 3.0 0.00 0.00 0.00 65 953.0
20260507152110 51 1 2.0 2.0 0.00 0.00 0.00 69 953.2
20260507151606 51 253 0.0 2.0 0.00 0.00 0.00 67 953.3
20260507151103 51 247 0.0 1.0 0.00 0.00 0.00 71 953.4
20260507150601 51 238 2.0 4.0 0.00 0.00 0.00 67 953.4
20260507150057 51 264 0.0 2.0 0.00 0.00 0.00 71 953.2
20260507145552 51 268 3.0 3.0 0.00 0.00 0.00 65 953.6
20260507145050 51 345 0.0 1.0 0.00 0.00 0.00 71 953.4
20260507144546 50 260 0.0 1.0 0.00 0.00 0.00 73 953.4
20260507144044 50 337 2.0 2.0 0.00 0.00 0.00 73 953.2
20260507143540 50 267 0.0 1.0 0.00 0.00 0.00 72 953.4
20260507143038 49 242 0.0 3.0 0.00 0.00 0.00 77 953.6
20260507142533 49 267 2.0 3.0 0.00 0.00 0.00 76 953.4
20260507142031 49 285 0.0 1.0 0.00 0.00 0.00 78 953.5
20260507141527 49 261 0.0 6.0 0.00 0.00 0.00 77 953.5
20260507141024 49 351 2.0 2.0 0.00 0.00 0.00 81 953.4
20260507140521 49 247 0.0 1.0 0.00 0.00 0.00 82 953.5
20260507140018 48 338 0.0 1.0 0.00 0.00 0.00 83 953.7
20260507135514 48 119 0.0 2.0 0.00 0.00 0.00 83 953.8
20260507135012 48 217 0.0 3.0 0.00 0.00 0.00 86 953.6
20260507134508 48 234 0.0 0.0 0.00 0.00 0.00 87 953.8
20260507134004 47 220 0.0 1.0 0.00 0.00 0.00 87 953.9
20260507133500 47 195 0.0 0.0 0.00 0.00 0.00 88 953.8
20260507132959 46 94 0.0 2.0 0.00 0.00 0.00 89 954.1
20260507132455 46 224 0.0 0.0 0.00 0.00 0.00 88 954.0
20260507131951 47 252 2.0 3.0 0.00 0.00 0.00 90 953.9
20260507131448 46 356 0.0 1.0 0.00 0.00 0.00 90 953.7
20260507130945 46 251 0.0 0.0 0.00 0.00 0.00 91 954.0
20260507130442 46 226 0.0 0.0 0.00 0.00 0.00 92 954.0
20260507125941 46 307 0.0 0.0 0.00 0.00 0.00 92 954.0
20260507125438 46 248 0.0 0.0 0.00 0.00 0.00 92 954.1
20260507124935 45 282 0.0 0.0 0.00 0.00 0.00 92 954.2
20260507124432 45 265 0.0 0.0 0.00 0.00 0.00 92 954.1
20260507123930 46 268 0.0 0.0 0.00 0.00 0.00 93 954.1
20260507123427 46 230 0.0 1.0 0.00 0.00 0.00 92 954.2
20260507122923 46 223 0.0 2.0 0.00 0.00 0.00 91 954.3
20260507122418 46 222 0.0 0.0 0.00 0.00 0.00 92 954.0
20260507121915 46 247 0.0 0.0 0.00 0.00 0.00 92 953.8
20260507121410 46 247 0.0 2.0 0.00 0.00 0.00 93 953.8
20260507120908 46 69 2.0 2.0 0.00 0.00 0.00 93 953.7
20260507120404 46 268 3.0 4.0 0.00 0.00 0.00 93 953.8
20260507115900 46 292 0.0 0.0 0.00 0.00 0.00 95 953.7
20260507115356 46 293 0.0 0.0 0.00 0.00 0.00 95 953.6
20260507114852 46 282 0.0 0.0 0.00 0.00 0.00 95 953.5
20260507114349 46 283 0.0 0.0 0.00 0.00 0.00 96 953.5
20260507113846 46 261 0.0 0.0 0.00 0.00 0.00 96 953.5
20260507113343 45 223 0.0 0.0 0.00 0.00 0.00 96 953.5
20260507112841 45 231 0.0 0.0 0.00 0.00 0.00 97 953.6
20260507112338 45 233 0.0 1.0 0.00 0.00 0.00 96 953.4
20260507111836 45 255 0.0 0.0 0.00 0.00 0.00 96 953.4
20260507111332 45 279 0.0 0.0 0.00 0.00 0.00 96 953.4
20260507110828 45 279 0.0 2.0 0.00 0.00 0.00 95 953.5
20260507110324 45 256 0.0 0.0 0.00 0.00 0.00 96 953.2
20260507105821 45 229 0.0 2.0 0.00 0.00 0.00 96 953.2
20260507105318 45 153 0.0 0.0 0.00 0.00 0.00 96 953.2
20260507104815 45 268 0.0 0.0 0.00 0.00 0.00 96 953.1
20260507104311 45 268 0.0 0.0 0.00 0.00 0.00 96 953.1
20260507103807 45 252 0.0 0.0 0.00 0.00 0.00 96 953.1
20260507103304 45 255 0.0 0.0 0.00 0.00 0.00 96 953.1
20260507102801 45 231 0.0 0.0 0.00 0.00 0.00 96 953.1
20260507102257 45 265 0.0 0.0 0.00 0.00 0.00 96 953.1
20260507101754 0 0.0 0.0 0.00 0.00 0.00 952.7
20260507101253 0 0.0 0.0 0.00 0.00 0.00 952.9
20260507100751 0 0.0 0.0 0.00 0.00 0.00 952.7
20260507100249 0 0.0 0.0 0.00 0.00 0.00 952.7
20260507095747 0 0.0 0.0 0.00 0.00 0.00 952.7
20260507095243 0 0.0 0.0 0.00 0.00 0.00 952.7
20260507094740 0 0.0 0.0 0.00 0.00 0.00 953.0
20260507094237 0 0.0 0.0 0.00 0.00 0.00 952.6
20260507093734 0 0.0 0.0 0.00 0.00 0.00 952.7
20260507093232 0 0.0 0.0 0.00 0.00 0.00 952.9